Need To Know Information

  • Runway Strength
  • Airfield Lighting
  • Current Projects
  • Rental Cars

Why Delaware Coastal

  • Tax-Free Shopping
  • Convenient Fuel Stop
  • Beaches
  • Top Attractions

Current Weather Conditions

KGED 131854Z AUTO 30014G28KT 9SM -SN BKN065 M05/M19 A3019 RMK AO2 PK WND 29030/1758 SLP224 P0000 T10501194
Wind Speed Deg 300
Wind Speed Kt 14

Current Fuel Cost

JET-A W/FSII $4.50/gal.
AVGAS $4.50/gal.
DE Location Map

Location.

Location.

Location.

  • Centrally located within driving distance of 4 major markets
  • Flight Time to: D.C. - 20 min. PHL - 22 min. NYC - 30 min.
  • Next to V-1, a busy North/South airway
  • The preferred airport for Delaware’s beaches

Facilities

  • Large corporate jet capability
  • Great pavement conditions (all under 10 years old)
  • $40 million in recent improvements
  • 5500 x 150 ft. main runway
  • 3109 x 75 ft. crosswind runway
  • Fuel & service
  • Rail access at the airport
  • Rental car access
Sussex Hangar

Hangar

Development

Opportunities

We have land available for hangar development!

Thank you for your submission.

Please correct your Name.

Please correct your Email.

Please correct your Subject.

Please correct your Message.